TimeCEST,TemperatureF,Dew PointF,Humidity,Sea Level PressureIn,VisibilityMPH,Wind Direction,Wind SpeedMPH,Gust SpeedMPH,PrecipitationIn,Events,Conditions,WindDirDegrees,DateUTC
12:25 AM,51.8,41.0,67,29.86,6.2,SW,19.6,-,N/A,,Mostly Cloudy,230,2013-05-11 22:25:00
12:55 AM,50.0,41.0,71,29.86,6.2,SW,17.3,28.8,N/A,,Light Drizzle,230,2013-05-11 22:55:00
1:25 AM,50.0,41.0,71,29.86,6.2,SW,13.8,-,N/A,,Mostly Cloudy,230,2013-05-11 23:25:00
1:47 AM,50.0,42.8,76,29.86,6.2,WSW,13.8,-,N/A,,Overcast,240,2013-05-11 23:47:00
1:55 AM,50.0,42.8,76,29.86,6.2,WSW,13.8,-,N/A,Rain,Light Rain,240,2013-05-11 23:55:00
2:00 AM,49,43,74,29.86,14,SW,13.4,,,Rain,Light Rain,230,2013-05-12 00:00:00
2:25 AM,46.4,42.8,87,29.86,6.2,WNW,10.4,-,N/A,Rain,Light Rain Showers,290,2013-05-12 00:25:00
2:26 AM,46.4,42.8,87,29.86,6.2,WNW,9.2,-,N/A,Rain,Rain Showers,290,2013-05-12 00:26:00
2:42 AM,44.6,42.8,93,29.86,6.2,WNW,8.1,-,N/A,Rain,Light Rain Showers,290,2013-05-12 00:42:00
2:55 AM,44.6,42.8,93,29.86,6.2,WNW,6.9,-,N/A,Rain,Light Rain Showers,290,2013-05-12 00:55:00
3:25 AM,44.6,42.8,93,29.86,3.1,West,3.5,-,N/A,Rain,Rain Showers,270,2013-05-12 01:25:00
3:36 AM,44.6,42.8,93,29.86,6.2,WSW,3.5,-,N/A,Rain,Light Rain,250,2013-05-12 01:36:00
3:55 AM,44.6,42.8,93,29.83,6.2,WSW,3.5,-,N/A,,Overcast,240,2013-05-12 01:55:00
4:25 AM,44.6,42.8,93,29.83,6.2,SSW,2.3,-,N/A,,Overcast,210,2013-05-12 02:25:00
4:30 AM,44.6,42.8,93,29.83,6.2,South,3.5,-,N/A,,Mostly Cloudy,180,2013-05-12 02:30:00
4:55 AM,44.6,42.8,93,29.83,6.2,North,3.5,-,N/A,,Mostly Cloudy,350,2013-05-12 02:55:00
4:56 AM,44.6,42.8,93,29.83,6.2,NW,3.5,-,N/A,,Mostly Cloudy,310,2013-05-12 02:56:00
5:00 AM,44,43,97,29.85,28,,2.2,,,,Partly Cloudy,,2013-05-12 03:00:00
5:03 AM,44.6,42.8,93,29.83,6.2,West,2.3,-,N/A,,Mostly Cloudy,270,2013-05-12 03:03:00
5:10 AM,44.6,42.8,93,29.83,6.2,WSW,3.5,-,N/A,,Mostly Cloudy,240,2013-05-12 03:10:00
5:17 AM,44.6,44.6,100,29.83,6.2,WSW,3.5,-,N/A,,Drizzle,250,2013-05-12 03:17:00
5:25 AM,44.6,42.8,93,29.83,6.2,WNW,9.2,-,N/A,Rain,Light Rain,290,2013-05-12 03:25:00
5:39 AM,44.6,42.8,93,29.86,6.2,WNW,8.1,-,N/A,,Mostly Cloudy,290,2013-05-12 03:39:00
5:55 AM,44.6,42.8,93,29.86,6.2,West,8.1,-,N/A,,Overcast,270,2013-05-12 03:55:00
6:25 AM,44.6,42.8,93,29.86,6.2,West,8.1,-,N/A,,Mostly Cloudy,260,2013-05-12 04:25:00
6:38 AM,44.6,42.8,93,29.86,6.2,WSW,6.9,-,N/A,,Overcast,250,2013-05-12 04:38:00
6:44 AM,44.6,41.0,87,29.86,6.2,West,11.5,-,N/A,Rain,Rain Showers,260,2013-05-12 04:44:00
6:48 AM,44.6,42.8,93,29.86,5.6,West,12.7,-,N/A,Rain,Light Rain Showers,260,2013-05-12 04:48:00
6:55 AM,44.6,41.0,87,29.86,6.2,WSW,11.5,-,N/A,Rain,Rain Showers,250,2013-05-12 04:55:00
7:03 AM,44.6,41.0,87,29.86,6.2,WSW,9.2,-,N/A,,Mostly Cloudy,240,2013-05-12 05:03:00
7:25 AM,44.6,42.8,93,29.89,6.2,WSW,10.4,-,N/A,Rain,Light Rain Showers,240,2013-05-12 05:25:00
7:55 AM,44.6,42.8,93,29.89,6.2,WSW,9.2,-,N/A,,Mostly Cloudy,240,2013-05-12 05:55:00
8:00 AM,45,43,88,29.91,22,WSW,8.9,,,Rain,Rain,240,2013-05-12 06:00:00
8:11 AM,44.6,42.8,93,29.89,6.2,WSW,10.4,-,N/A,,Mostly Cloudy,240,2013-05-12 06:11:00
8:12 AM,44.6,42.8,93,29.89,6.2,WSW,9.2,-,N/A,,Overcast,240,2013-05-12 06:12:00
8:25 AM,44.6,42.8,93,29.89,6.2,SW,10.4,-,N/A,,Partly Cloudy,230,2013-05-12 06:25:00
8:26 AM,46.4,44.6,93,29.89,6.2,SW,10.4,-,N/A,,Scattered Clouds,230,2013-05-12 06:26:00
8:36 AM,46.4,42.8,87,29.89,6.2,SW,11.5,-,N/A,,Partly Cloudy,230,2013-05-12 06:36:00
8:55 AM,48.2,44.6,87,29.92,6.2,SW,11.5,-,N/A,,Scattered Clouds,230,2013-05-12 06:55:00
9:01 AM,48.2,44.6,87,29.92,6.2,WSW,10.4,-,N/A,,Scattered Clouds,240,2013-05-12 07:01:00
9:04 AM,48.2,44.6,87,29.92,6.2,WSW,11.5,-,N/A,,Partly Cloudy,240,2013-05-12 07:04:00
9:08 AM,48.2,44.6,87,29.92,6.2,SW,12.7,-,N/A,,Scattered Clouds,230,2013-05-12 07:08:00
9:13 AM,48.2,44.6,87,29.92,6.2,SW,12.7,-,N/A,,Mostly Cloudy,230,2013-05-12 07:13:00
9:15 AM,48.2,44.6,87,29.92,6.2,WSW,12.7,-,N/A,,Mostly Cloudy,240,2013-05-12 07:15:00
9:25 AM,50.0,44.6,82,29.92,6.2,WSW,11.5,-,N/A,,Mostly Cloudy,240,2013-05-12 07:25:00
9:33 AM,50.0,44.6,82,29.92,6.2,WSW,11.5,-,N/A,,Mostly Cloudy,240,2013-05-12 07:33:00
9:42 AM,50.0,46.4,87,29.92,6.2,WSW,11.5,-,N/A,,Mostly Cloudy,240,2013-05-12 07:42:00
9:47 AM,48.2,42.8,82,29.92,6.2,WSW,10.4,-,N/A,,Mostly Cloudy,240,2013-05-12 07:47:00
9:48 AM,48.2,42.8,82,29.92,6.2,WSW,10.4,-,N/A,,Mostly Cloudy,240,2013-05-12 07:48:00
9:55 AM,48.2,42.8,82,29.92,6.2,WSW,10.4,-,N/A,,Mostly Cloudy,240,2013-05-12 07:55:00
9:57 AM,48.2,42.8,82,29.92,6.2,WSW,10.4,-,N/A,,Mostly Cloudy,250,2013-05-12 07:57:00
10:01 AM,48.2,41.0,76,29.92,6.2,WSW,11.5,-,N/A,Rain,Light Rain,250,2013-05-12 08:01:00
10:05 AM,46.4,41.0,81,29.92,6.2,WSW,16.1,-,N/A,,Mostly Cloudy,240,2013-05-12 08:05:00
10:12 AM,50.0,44.6,82,29.92,6.2,WSW,15.0,-,N/A,,Mostly Cloudy,240,2013-05-12 08:12:00
10:25 AM,48.2,42.8,82,29.92,6.2,SW,12.7,-,N/A,,Mostly Cloudy,230,2013-05-12 08:25:00
10:43 AM,50.0,42.8,76,29.92,6.2,SW,11.5,-,N/A,,Mostly Cloudy,230,2013-05-12 08:43:00
10:55 AM,51.8,42.8,71,29.95,6.2,WSW,11.5,25.3,N/A,,Mostly Cloudy,250,2013-05-12 08:55:00
11:00 AM,52,44,66,29.95,22,WSW,13.4,,,Rain,Rain,250,2013-05-12 09:00:00
11:12 AM,51.8,42.8,71,29.95,6.2,WSW,16.1,-,N/A,,Scattered Clouds,240,2013-05-12 09:12:00
11:15 AM,51.8,42.8,71,29.95,6.2,WSW,16.1,-,N/A,,Mostly Cloudy,240,2013-05-12 09:15:00
11:25 AM,51.8,42.8,71,29.95,6.2,WSW,13.8,-,N/A,Rain,Light Rain,250,2013-05-12 09:25:00
11:33 AM,50.0,42.8,76,29.95,6.2,WSW,16.1,-,N/A,,Mostly Cloudy,240,2013-05-12 09:33:00
11:41 AM,51.8,42.8,71,29.95,6.2,WSW,12.7,-,N/A,,Mostly Cloudy,250,2013-05-12 09:41:00
11:55 AM,51.8,42.8,71,29.95,6.2,WSW,11.5,-,N/A,,Mostly Cloudy,250,2013-05-12 09:55:00
11:58 AM,51.8,42.8,71,29.95,6.2,WSW,12.7,-,N/A,,Mostly Cloudy,240,2013-05-12 09:58:00
12:02 PM,53.6,44.6,72,29.95,6.2,SW,12.7,-,N/A,,Mostly Cloudy,230,2013-05-12 10:02:00
12:05 PM,53.6,44.6,72,29.95,6.2,SW,12.7,-,N/A,,Mostly Cloudy,230,2013-05-12 10:05:00
12:25 PM,48.2,44.6,87,29.95,6.2,WSW,16.1,-,N/A,Rain,Light Rain,240,2013-05-12 10:25:00
12:28 PM,48.2,46.4,93,29.95,5.0,WSW,15.0,-,N/A,Rain,Light Rain,240,2013-05-12 10:28:00
12:30 PM,48.2,46.4,93,29.95,6.2,WSW,13.8,-,N/A,Rain,Rain,240,2013-05-12 10:30:00
12:37 PM,48.2,46.4,93,29.95,4.3,WSW,13.8,-,N/A,Rain,Light Rain,240,2013-05-12 10:37:00
12:41 PM,48.2,44.6,87,29.98,6.2,WSW,15.0,-,N/A,Rain,Light Rain Showers,250,2013-05-12 10:41:00
12:44 PM,48.2,44.6,87,29.98,3.7,WSW,13.8,-,N/A,Rain,Light Rain Showers,250,2013-05-12 10:44:00
12:48 PM,48.2,46.4,93,29.98,5.6,WSW,12.7,-,N/A,Rain,Light Rain,250,2013-05-12 10:48:00
12:55 PM,48.2,44.6,87,29.98,6.2,WSW,11.5,-,N/A,Rain,Light Rain,250,2013-05-12 10:55:00
1:08 PM,51.8,46.4,82,29.98,6.2,WSW,9.2,-,N/A,,Mostly Cloudy,250,2013-05-12 11:08:00
1:12 PM,51.8,46.4,82,29.98,6.2,WSW,10.4,-,N/A,,Mostly Cloudy,250,2013-05-12 11:12:00
1:16 PM,51.8,46.4,82,29.98,6.2,West,10.4,-,N/A,,Mostly Cloudy,260,2013-05-12 11:16:00
1:25 PM,50.0,44.6,82,29.98,6.2,WSW,10.4,-,N/A,,Mostly Cloudy,250,2013-05-12 11:25:00
1:26 PM,51.8,46.4,82,29.98,6.2,West,8.1,-,N/A,,Mostly Cloudy,260,2013-05-12 11:26:00
1:55 PM,51.8,44.6,76,29.98,6.2,West,13.8,-,N/A,,Mostly Cloudy,270,2013-05-12 11:55:00
2:00 PM,54,46,67,29.99,22,West,11.2,,,,Partly Cloudy,270,2013-05-12 12:00:00
2:04 PM,53.6,48.2,82,29.98,6.2,West,11.5,-,N/A,,Mostly Cloudy,270,2013-05-12 12:04:00
2:08 PM,55.4,46.4,72,29.98,6.2,West,12.7,-,N/A,,Mostly Cloudy,260,2013-05-12 12:08:00
2:15 PM,53.6,42.8,67,29.98,6.2,West,12.7,-,N/A,,Mostly Cloudy,270,2013-05-12 12:15:00
2:25 PM,53.6,46.4,77,29.98,6.2,West,11.5,-,N/A,,Mostly Cloudy,270,2013-05-12 12:25:00
2:35 PM,55.4,44.6,67,29.98,6.2,West,12.7,-,N/A,,Mostly Cloudy,260,2013-05-12 12:35:00
2:55 PM,55.4,44.6,67,29.98,6.2,West,11.5,-,N/A,,Mostly Cloudy,270,2013-05-12 12:55:00
3:11 PM,51.8,46.4,82,29.98,6.2,West,10.4,-,N/A,Rain,Light Rain,270,2013-05-12 13:11:00
3:15 PM,51.8,46.4,82,29.98,6.2,West,9.2,-,N/A,Rain,Light Rain,270,2013-05-12 13:15:00
3:20 PM,53.6,48.2,82,29.98,6.2,West,9.2,-,N/A,,Mostly Cloudy,270,2013-05-12 13:20:00
3:25 PM,53.6,46.4,77,29.98,6.2,West,9.2,-,N/A,,Scattered Clouds,270,2013-05-12 13:25:00
3:29 PM,53.6,44.6,72,29.98,6.2,West,10.4,-,N/A,,Scattered Clouds,270,2013-05-12 13:29:00
3:39 PM,51.8,46.4,82,29.98,6.2,WSW,12.7,-,N/A,Rain,Light Rain,250,2013-05-12 13:39:00
3:43 PM,51.8,46.4,82,29.98,6.2,WSW,11.5,-,N/A,Rain,Light Rain,250,2013-05-12 13:43:00
3:47 PM,53.6,48.2,82,29.98,6.2,WSW,10.4,-,N/A,,Overcast,250,2013-05-12 13:47:00
3:55 PM,55.4,48.2,77,29.98,6.2,West,15.0,-,N/A,,Overcast,260,2013-05-12 13:55:00
4:04 PM,53.6,46.4,77,29.98,6.2,West,18.4,-,N/A,,Mostly Cloudy,260,2013-05-12 14:04:00
4:25 PM,53.6,46.4,77,29.98,6.2,WSW,18.4,-,N/A,,Mostly Cloudy,250,2013-05-12 14:25:00
4:34 PM,51.8,46.4,82,30.01,6.2,West,17.3,-,N/A,,Mostly Cloudy,260,2013-05-12 14:34:00
4:38 PM,51.8,46.4,82,30.01,6.2,West,16.1,-,N/A,,Mostly Cloudy,260,2013-05-12 14:38:00
4:46 PM,53.6,48.2,82,30.01,6.2,West,15.0,-,N/A,Rain,Light Rain,260,2013-05-12 14:46:00
4:55 PM,51.8,44.6,76,30.01,6.2,West,12.7,-,N/A,,Mostly Cloudy,260,2013-05-12 14:55:00
5:00 PM,52,46,74,30.02,15,West,15.7,,,Rain,Rain,260,2013-05-12 15:00:00
5:25 PM,51.8,44.6,76,30.01,6.2,West,15.0,-,N/A,,Mostly Cloudy,260,2013-05-12 15:25:00
5:35 PM,51.8,44.6,76,30.01,6.2,West,13.8,-,N/A,,Overcast,270,2013-05-12 15:35:00
5:45 PM,51.8,46.4,82,30.01,6.2,West,12.7,-,N/A,,Mostly Cloudy,260,2013-05-12 15:45:00
5:55 PM,51.8,44.6,76,30.01,6.2,West,15.0,-,N/A,,Overcast,260,2013-05-12 15:55:00
6:17 PM,53.6,44.6,72,30.01,6.2,West,10.4,-,N/A,,Mostly Cloudy,260,2013-05-12 16:17:00
6:25 PM,53.6,44.6,72,30.01,6.2,West,10.4,-,N/A,,Mostly Cloudy,260,2013-05-12 16:25:00
6:29 PM,53.6,44.6,72,30.01,6.2,WSW,10.4,-,N/A,,Overcast,250,2013-05-12 16:29:00
6:44 PM,53.6,44.6,72,30.01,6.2,West,8.1,-,N/A,,Mostly Cloudy,280,2013-05-12 16:44:00
6:55 PM,53.6,44.6,72,30.01,6.2,West,6.9,-,N/A,,Mostly Cloudy,280,2013-05-12 16:55:00
7:25 PM,53.6,42.8,67,30.01,6.2,West,6.9,-,N/A,,Overcast,270,2013-05-12 17:25:00
7:39 PM,51.8,44.6,76,30.01,6.2,SW,9.2,-,N/A,Rain,Light Rain,230,2013-05-12 17:39:00
7:43 PM,51.8,44.6,76,30.01,6.2,SW,10.4,-,N/A,,Overcast,220,2013-05-12 17:43:00
7:55 PM,51.8,46.4,82,30.01,6.2,SW,8.1,-,N/A,Rain,Light Rain,220,2013-05-12 17:55:00
8:00 PM,52,46,73,30.02,12,SW,6.7,,,Rain,Light Rain Showers,220,2013-05-12 18:00:00
8:25 PM,51.8,46.4,82,30.01,6.2,SSW,4.6,-,N/A,,Overcast,210,2013-05-12 18:25:00
8:55 PM,50.0,44.6,82,30.01,6.2,SSW,5.8,-,N/A,,Mostly Cloudy,200,2013-05-12 18:55:00
9:00 PM,50.0,44.6,82,30.01,6.2,SSW,5.8,-,N/A,,Overcast,200,2013-05-12 19:00:00
9:25 PM,50.0,44.6,82,30.01,6.2,South,5.8,-,N/A,,Overcast,180,2013-05-12 19:25:00
9:55 PM,50.0,44.6,82,30.01,6.2,South,6.9,-,N/A,,Mostly Cloudy,180,2013-05-12 19:55:00
10:25 PM,50.0,42.8,76,30.01,6.2,SSW,6.9,-,N/A,,Mostly Cloudy,200,2013-05-12 20:25:00
10:55 PM,50.0,42.8,76,30.01,6.2,SSW,6.9,-,N/A,,Mostly Cloudy,210,2013-05-12 20:55:00
11:00 PM,50,42,64,30.02,25,SW,8.9,,,,Mostly Cloudy,220,2013-05-12 21:00:00
11:04 PM,50.0,41.0,71,30.01,6.2,SW,8.1,-,N/A,,Mostly Cloudy,220,2013-05-12 21:04:00
11:25 PM,50.0,41.0,71,30.01,6.2,SW,9.2,-,N/A,,Mostly Cloudy,230,2013-05-12 21:25:00
11:55 PM,50.0,41.0,71,30.01,6.2,SW,12.7,-,N/A,,Mostly Cloudy,230,2013-05-12 21:55:00